Regional Weather Roundup
Issued by NWS

Home | Current Version | Previous Version | Graphics & Text | Print | Product List | Glossary Off
Versions: 1 2 3 4 5 6 7 8 9 10 11 12 13 14 15 16 17 18 19 20 21 22 23 24 25 26 27 28 29 30 31 32 33 34 35 36 37 38 39 40 41 42 43 44 45 46 47 48 49 50

000
ASUS43 KMKX 300821
RWRWI

WISCONSIN REGIONAL WEATHER ROUNDUP
NATIONAL WEATHER SERVICE MILWAUKEE/SULLIVAN WI
300 AM CDT THU JUL 30 2015

NOTE: "FAIR" INDICATES FEW OR NO CLOUDS BELOW 12,000 FEET WITH NO
SIGNIFICANT WEATHER AND/OR OBSTRUCTIONS TO VISIBILITY.

WIZ001-002-006>008-014>016-023>028-300900-
NORTHWEST WISCONSIN

CITY           SKY/WX    TMP DP  RH WIND       PRES   REMARKS
SUPERIOR ARPT  CLEAR     63  55  77 W8        29.89R
ASHLAND        CLEAR     65  55  70 W10G18    29.87R
HAYWARD        CLEAR     63  54  72 W3        29.94R
SIREN          CLEAR     64  55  73 W7        29.96S
CUMBERLAND     CLEAR     61  54  77 W7        29.97S
RICE LAKE      CLEAR     62  55  78 W6        29.98S
CHETEK         CLEAR     66  56  70 W6        29.97R
LADYSMITH      CLEAR     64  55  74 SW7       29.97R
EAU CLAIRE     CLEAR     63  55  75 W8        29.97S
MENOMONIE      CLEAR     66  56  70 SW7       29.99S
NEW RICHMOND   CLEAR     64  55  70 W7        30.00R
OSCEOLA        CLEAR     65  56  72 W8        30.01S
$$

WIZ003>005-009-010-017-018-300900-
NORTH CENTRAL WISCONSIN

CITY           SKY/WX    TMP DP  RH WIND       PRES   REMARKS
MANITOWISH WTR CLEAR     60  54  80 W7        29.90R
ARBOR VITAE    CLEAR     64  54  69 W9        29.91R
WOODRUFF       CLEAR     64  54  69 W9        29.91R
RHINELANDER    CLEAR     64  52  64 W15       29.92R
EAGLE RIVER    CLEAR     65  50  58 W12       29.88S
LAND O LAKES   CLEAR     63  53  68 W6        29.89R
PHILLIPS       CLEAR     62  54  73 W5        29.93R
TOMAHAWK       CLEAR     63  52  68 W7        29.94R
MEDFORD        PTCLDY    61  55  82 W7        29.96R
MERRILL        NOT AVBL
$$

WIZ029-030-035-036-043>047-300900-
CENTRAL WISCONSIN

CITY           SKY/WX    TMP DP  RH WIND       PRES   REMARKS
WAUSAU         CLEAR     67  54  63 W15       29.93S
MOSINEE        CLEAR     61  55  82 W10       29.96S
MARSHFIELD     CLEAR     63  53  70 W8        29.97S
STEVENS POINT  CLEAR     64  54  70 W8        29.96S
WAUPACA        CLEAR     66  55  66 SW5       29.95S
WAUTOMA        CLEAR     67  54  63 W8        29.98R
WISC RAPIDS    CLEAR     64  53  67 W7        29.98S
CAMP DOUGLAS   CLEAR     63  58  84 W7        29.99S
$$

WIZ011>013-019>022-031-037>040-048>050-300900-
NORTHEAST WISCONSIN

CITY           SKY/WX    TMP DP  RH WIND       PRES   REMARKS
ANTIGO         CLEAR     62  55  77 W12       29.93S
SHAWANO        CLEAR     68  55  62 W8        29.91S
OCONTO         CLEAR     64  56  75 W6        29.88S
STURGEON BAY   CLEAR     68  54  60 W12G20    29.90S
GREEN BAY      CLEAR     68  55  63 W9        29.91S
MANITOWOC      CLEAR     68  56  65 MISG      29.92S
APPLETON       CLEAR     63  52  67 W9        29.94F
CLINTONVILLE   CLEAR     63  54  72 SW7       29.92S
OSHKOSH        CLEAR     68  53  58 W8        29.95R
$$

WIZ032>034-041-042-053>061-300900-
SOUTHWEST WISCONSIN

CITY           SKY/WX    TMP DP  RH WIND       PRES   REMARKS
LA CROSSE      CLEAR     72  54  53 W13       30.01S
SPARTA         CLEAR     56  51  83 SW3       30.02S
VIROQUA        CLEAR     61  58  89 SW5       30.05S
BOSCOBEL       CLEAR     62  58  86 SW3       30.04S
PRAIRIE DU CHI CLEAR     66  57  72 N6        30.05S
PLATTEVILLE    CLEAR     61  58  90 W9        30.06S
$$

WIZ056-057-062-063-064-067-068-300900-
SOUTH CENTRAL WISCONSIN

CITY           SKY/WX    TMP DP  RH WIND       PRES   REMARKS
REEDSBURG      CLEAR     66  56  69 W3        30.01S
BARABOO/DELLS  CLEAR     65  53  63 W5        30.01S
LONE ROCK      CLEAR     60  55  83 CALM      30.03S
MINERAL POINT  CLEAR     63  59  88 W7        30.05F
MADISON        CLEAR     68  56  65 W7        30.00F
MIDDLETON      CLEAR     65  56  73 W7        30.02S
WATERTOWN      CLEAR     63  57  83 SW6       29.99S
MONROE         CLEAR     64  57  77 W13       30.04S
JANESVILLE     CLEAR     64  55  72 W6        30.01S
$$

WIZ051-052-058>065-066-070>072-300900-
SOUTHEAST WISCONSIN

CITY           SKY/WX    TMP DP  RH WIND       PRES   REMARKS
MILWAUKEE      CLEAR     70  54  56 W6        29.97F
WAUKESHA       CLEAR     66  54  63 W10       29.99S
MILWAUKEE/TIMM CLEAR     66  52  59 W8        29.98S
RACINE         CLEAR     67  54  63 W7        30.00S
BURLINGTON     CLEAR     62  54  73 W5        30.00S
KENOSHA        CLEAR     63  55  75 W8        29.99F
FOND DU LAC    CLEAR     63  55  75 SW6       29.96S
SHEBOYGAN      CLEAR     69  54  58 W13       29.94S
WEST BEND      CLEAR     64  52  63 W9        29.97S
JUNEAU         CLEAR     60  55  84 SW7       30.00S
$$

LSZ147-162-300900-
LAKE SUPERIOR

STATION/POSITION TIME  TEMP    WIND        PRES    WAVE
                       AIR SEA DIR/SP/G            HT/PER
                 (UTC) (F)     (DEG/KT/KT) (MB)    (FT/S)
W MID LAKE BUOY  0750   63 55  240/ 23/ 27 1006.7F   4/ 5
DEVILS ISLAND    0800   65     250/ 22/ 26 1009.5R
PORT WING        0700   71     240/ 14/ 20 1011.2R
SAXON HARBOR     0700   70                 1010.5S
$$

LMZ867-665-643>646-300900-
LAKE MICHIGAN

STATION/POSITION TIME  TEMP    WIND        PRES    WAVE
                       AIR SEA DIR/SP/G            HT/PER
                 (UTC) (F)     (DEG/KT/KT) (MB)    (FT/S)
CHAMBERS ISLAND  0700   70     210/  7/ 14 1010.5F
S GREEN BAY BUOY 0800   69 70  240/ 16/ 19 1013.2
N MID LAKE BUOY  0750   72 69  250/ 19/ 23 1008.8F   3/ 4
NORTHPORT PIER   0700   72     250/  5/ 17 1010.2F
SISTER BAY       0714   72     260/ 20/ 23   N/A
ALGOMA LAKESHORE 0712          240/  6/  9   N/A
SHEBOYGAN LAKESH 0800   68     250/  7/  8 1013.6F
PORT WASHINGTON  0700   70     260/  7/ 10 1014.9S
ATWATER BUOY     0800   70     250/ 10/ 14 1016.1F
MILWAUKEE LAKESH 0800   71     270/  8/ 11   N/A
KENOSHA   LAKESH 0800   70     270/ 10/ 13 1015.2S
$$

TC  - TEMPERATURE IN CELSIUS
VSB - VISIBILITY IN STATUTE MILES
WCI - WIND CHILL INDEX
HX  - HEAT INDEX




USA.gov is the U.S. government's official web portal to all federal, state and local government web resources and services.